Time,TemperatureF,DewpointF,PressureIn,WindDirection,WindDirectionDegrees,WindSpeedMPH,WindSpeedGustMPH,Humidity,HourlyPrecipIn,Conditions,Clouds,dailyrainin,SolarRadiationWatts/m^2,SoftwareType,DateUTC
2013-08-04 00:00:00,69.0,67.0,30.09,West,261,0.0,-999.0,93,-99.99,,,-99.99,0.000000,,2013-08-04 04:00:00,
2013-08-04 00:52:00,69.0,67.0,30.09,West,261,0.0,-999.0,93,-99.99,,,-99.99,0.000000,,2013-08-04 04:52:00,
2013-08-04 04:00:00,68.0,67.0,30.06,SSE,158,1.0,-999.0,96,-99.99,,,-99.99,0.630000,,2013-08-04 08:00:00,
2013-08-04 04:53:00,68.0,67.0,30.06,SSE,158,1.0,-999.0,96,-99.99,,,-99.99,0.630000,,2013-08-04 08:53:00,
2013-08-04 05:00:00,68.0,67.0,30.08,SSW,211,1.0,-999.0,96,-99.99,,,-99.99,0.330000,,2013-08-04 09:00:00,
2013-08-04 06:00:00,66.0,65.0,30.08,NW,309,0.0,-999.0,97,-99.99,,,-99.99,0.350000,,2013-08-04 10:00:00,
2013-08-04 06:53:00,66.0,65.0,30.08,NW,309,0.0,-999.0,97,-99.99,,,-99.99,0.350000,,2013-08-04 10:53:00,
2013-08-04 07:00:00,65.0,65.0,30.09,WNW,288,0.0,-999.0,97,-99.99,,,-99.99,6.260000,,2013-08-04 11:00:00,
2013-08-04 07:53:00,65.0,65.0,30.09,WNW,288,0.0,-999.0,97,-99.99,,,-99.99,6.260000,,2013-08-04 11:53:00,
2013-08-04 08:00:00,71.0,67.0,30.12,WSW,253,1.0,-999.0,86,-99.99,,,-99.99,126.099998,,2013-08-04 12:00:00,
2013-08-04 09:00:00,74.0,65.0,30.15,WNW,295,1.0,-999.0,72,-99.99,,,-99.99,313.000000,,2013-08-04 13:00:00,
2013-08-04 09:52:00,74.0,65.0,30.15,WNW,295,1.0,-999.0,72,-99.99,,,-99.99,313.000000,,2013-08-04 13:52:00,
2013-08-04 10:00:00,77.0,64.0,30.14,WNW,296,1.0,-999.0,64,-99.99,,,-99.99,499.600006,,2013-08-04 14:00:00,
2013-08-04 10:53:00,77.0,64.0,30.14,WNW,296,1.0,-999.0,64,-99.99,,,-99.99,499.600006,,2013-08-04 14:53:00,
2013-08-04 11:00:00,81.0,63.0,30.15,NE,34,1.0,-999.0,56,-99.99,,,-99.99,689.299988,,2013-08-04 15:00:00,
2013-08-04 12:00:00,80.0,63.0,30.15,NE,47,1.0,-999.0,55,-99.99,,,-99.99,820.000000,,2013-08-04 16:00:00,
2013-08-04 12:53:00,80.0,63.0,30.15,NE,47,1.0,-999.0,55,-99.99,,,-99.99,820.000000,,2013-08-04 16:53:00,
2013-08-04 13:00:00,81.0,56.0,30.14,West,264,1.0,-999.0,43,-99.99,,,-99.99,921.000000,,2013-08-04 17:00:00,
2013-08-04 13:53:00,81.0,56.0,30.14,West,264,1.0,-999.0,43,-99.99,,,-99.99,921.000000,,2013-08-04 17:53:00,
2013-08-04 14:00:00,82.0,58.0,30.13,WSW,241,1.0,-999.0,45,-99.99,,,-99.99,875.000000,,2013-08-04 18:00:00,
2013-08-04 14:52:00,82.0,58.0,30.13,WSW,241,1.0,-999.0,45,-99.99,,,-99.99,875.000000,,2013-08-04 18:52:00,
2013-08-04 15:00:00,83.0,58.0,30.12,WSW,252,1.0,-999.0,42,-99.99,,,-99.99,769.000000,,2013-08-04 19:00:00,
2013-08-04 15:53:00,83.0,58.0,30.12,WSW,252,1.0,-999.0,42,-99.99,,,-99.99,769.000000,,2013-08-04 19:53:00,
2013-08-04 16:00:00,83.0,61.0,30.12,NNE,13,1.0,-999.0,49,-99.99,,,-99.99,693.400024,,2013-08-04 20:00:00,
2013-08-04 16:53:00,83.0,61.0,30.12,NNE,13,1.0,-999.0,49,-99.99,,,-99.99,693.400024,,2013-08-04 20:53:00,
2013-08-04 17:00:00,82.0,61.0,30.12,NNE,24,1.0,-999.0,49,-99.99,,,-99.99,445.899994,,2013-08-04 21:00:00,
2013-08-04 17:53:00,82.0,61.0,30.12,NNE,24,1.0,-999.0,49,-99.99,,,-99.99,445.899994,,2013-08-04 21:53:00,
2013-08-04 18:00:00,79.0,64.0,30.12,NNW,330,0.0,-999.0,59,-99.99,,,-99.99,219.899994,,2013-08-04 22:00:00,
2013-08-04 18:53:00,79.0,64.0,30.12,NNW,330,0.0,-999.0,59,-99.99,,,-99.99,219.899994,,2013-08-04 22:53:00,
2013-08-04 19:00:00,78.0,62.0,30.12,NNW,335,0.0,-999.0,57,-99.99,,,-99.99,259.700012,,2013-08-04 23:00:00,
2013-08-04 19:53:00,78.0,62.0,30.12,NNW,335,0.0,-999.0,57,-99.99,,,-99.99,259.700012,,2013-08-04 23:53:00,
2013-08-04 20:00:00,70.0,65.0,30.13,West,281,0.0,-999.0,83,-99.99,,,-99.99,70.400002,,2013-08-05 00:00:00,
2013-08-04 21:00:00,67.0,63.0,30.14,North,356,0.0,-999.0,86,-99.99,,,-99.99,3.660000,,2013-08-05 01:00:00,
2013-08-04 22:00:00,70.0,61.0,30.16,ENE,67,0.0,-999.0,73,-99.99,,,-99.99,0.000000,,2013-08-05 02:00:00,
2013-08-04 23:00:00,66.0,62.0,30.17,ESE,114,0.0,-999.0,87,-99.99,,,-99.99,0.010000,,2013-08-05 03:00:00,
2013-08-04 23:53:00,66.0,62.0,30.17,ESE,114,0.0,-999.0,87,-99.99,,,-99.99,0.010000,,2013-08-05 03:53:00,